[[{"header":{"parameterUnit":"m.s-1","parameterCategory":1,"la1":30.2991,"la2":30.254,"lo1":-89.0895,"lo2":-89.0444,"dy":0.0017,"dx":0.0017,"nx":28,"ny":28,"refTime":"2025-07-09T09:00:00:Z","depth":0,"parameterNumber":2,"parameterNumberName":"U-component_of_WINDS"},"data":[0,0,0,0,0,0,0,0,0,0,0,0,0,0,0,0,0,0,0,0,0,0,0,0,0,0,0,0,0,0,0,0,0,0,0,0,0,0,0,0,0,0,0,0,0,0,0,0,0,0,0,0,0,0,0,0,0,0,1.9487,1.9487,0,1.955,1.9551,1.9551,1.9546,1.9545,1.9544,1.9543,1.9612,1.9614,1.9617,0,0,0,0,0,0,0,0,0,0,0,0,0,1.9364,1.9367,1.9486,1.9487,1.9488,1.955,1.9551,1.9551,1.9546,1.9545,1.9543,1.9542,1.9611,1.9614,1.9617,0,0,0,0,0,0,0,0,0,0,0,0,0,1.9422,1.9367,1.9486,1.9492,1.9494,1.9549,1.9551,1.9552,1.9546,1.9544,1.9543,1.9542,1.961,1.9614,1.9618,1.9673,0,0,1.963,1.9632,0,0,0,0,0,0,0,0,1.9418,1.9426,1.9491,1.9492,1.9494,1.9538,1.9533,1.9592,1.9546,1.9526,1.9543,1.9541,1.9589,1.9594,1.961,1.9676,1.9679,1.9631,1.9633,1.9635,1.9636,0,0,0,0,0,0,0,1.9414,1.9423,1.9512,1.9492,1.9493,1.9493,1.95,1.9544,1.9565,1.9528,1.9528,1.9535,1.9589,1.9606,1.9611,1.968,1.9631,1.9634,1.9637,1.9638,1.9794,1.9795,0,0,0,0,0,0,1.9408,1.942,1.951,1.9514,1.9451,1.9497,1.9504,1.9525,1.9565,1.9569,1.9536,1.9534,1.9599,1.9606,1.9614,1.9679,1.9635,1.9639,1.9641,1.9792,1.9794,1.9796,0,0,0,0,0,0,1.9406,1.9416,1.9507,1.9467,1.9478,1.95,1.9525,1.9527,1.9544,1.9571,1.9575,1.9549,1.9599,1.9608,1.9658,1.9682,1.9641,1.9644,1.979,1.9793,1.9795,1.9812,0,0,0,0,0,0,1.9402,1.9416,1.9436,1.9467,1.948,1.9549,1.9526,1.953,1.955,1.9549,1.9584,1.9588,1.9598,1.9651,1.9662,1.9687,1.9648,1.9788,1.9791,1.9794,1.9809,1.9815,1.982,0,0,0,0,0,1.9398,1.9439,1.9437,1.9448,1.9506,1.955,1.9558,1.9567,1.9552,1.9573,1.9591,1.9587,1.9678,1.9657,1.9668,1.9695,1.9787,1.9791,1.9794,1.9807,1.9814,1.9819,0,0,0,0,0,0,1.9411,1.9443,1.9441,1.9493,1.9519,1.9549,1.9576,1.9574,1.9605,1.9603,1.9614,1.9622,1.9672,1.9689,1.9665,1.975,1.973,1.9737,1.9737,1.9743,1.9748,1.9742,1.9651,0,0,0,0,0,1.942,1.9452,1.9479,1.9523,1.9535,1.9553,1.9573,1.9578,1.9605,1.9617,1.9638,1.9666,1.97,1.9723,1.9757,1.9813,1.982,1.9837,1.9842,1.9846,1.985,1.988,1.9888,1.9808,1.9808,1.9808,0,0,1.9439,1.9461,1.948,1.9526,1.9546,1.958,1.9563,1.9599,1.9625,1.9623,1.967,1.9687,1.9719,1.9771,1.9796,1.9787,1.9874,1.985,1.9853,1.9856,1.9885,1.9892,1.9899,1.9811,1.981,1.981,0,0,1.949,1.951,1.9548,1.9568,1.9599,1.961,1.962,1.965,1.966,1.9708,1.9707,1.9738,1.9798,1.982,1.984,1.9899,1.9897,1.991,1.9936,1.9965,1.9971,1.9977,1.9997,2.0004,1.9915,1.9915,1.9916,0,1.951,1.9559,1.9568,1.9604,1.9624,1.9623,1.9662,1.9682,1.9722,1.9737,1.9726,1.98,1.9822,1.9879,1.9894,1.991,1.9921,1.9906,1.997,1.9975,1.9981,2.0,2.0008,1.9917,1.9917,1.9916,1.9916,0,1.9582,1.9616,1.9644,1.968,1.9704,1.9742,1.9756,1.978,1.9783,1.9796,1.9844,1.987,1.9908,1.9923,1.9927,1.9981,1.9974,1.9967,1.9947,1.9989,2.0008,2.0015,1.9919,1.9918,1.9918,1.9917,0,0,1.9642,1.9683,1.9693,1.9709,1.9743,1.977,1.9808,1.9844,1.9863,1.9892,1.9924,1.9974,1.9967,1.9989,1.9996,2.0022,2.0066,2.0011,2.0012,2.0019,2.0126,2.013,2.0138,2.0065,2.0067,2.0068,2.0123,0,1.9695,1.976,1.9769,1.9827,1.9859,1.9858,1.9891,1.9916,1.993,1.996,1.9975,2.001,1.9999,2.0012,2.0037,2.0055,2.0087,2.0051,2.0095,2.0096,2.0085,2.0148,2.0153,2.0204,2.013,2.0131,2.0132,0,1.9766,1.9794,1.9855,1.9883,1.9897,1.9926,1.996,1.9988,2.0017,2.0025,2.0049,2.0053,2.0093,2.0073,2.0128,2.0103,2.0122,2.0134,2.0136,2.0139,2.0116,2.0152,2.022,2.0227,2.0144,2.0143,2.0142,0,1.9802,1.9856,1.9898,1.9913,1.9948,1.9968,1.9984,2.0011,2.0032,2.0062,2.0075,2.011,2.0129,2.0157,2.017,2.0154,2.0224,2.0205,2.0232,2.0232,2.0245,2.0244,2.0316,2.026,2.026,2.026,2.026,0,1.9859,1.9896,1.9915,1.9941,1.9983,1.9993,2.0034,2.005,2.0074,2.0103,2.0107,2.0135,2.0151,2.0182,2.0193,2.0237,2.0246,2.0254,2.0256,2.0253,2.0251,2.0264,2.026,2.0262,2.0261,2.0261,2.0261,0,1.9906,1.992,1.9966,1.9995,2.0004,2.0033,2.0058,2.0084,2.0097,2.0135,2.0145,2.0166,2.0203,2.0219,2.0265,2.0272,2.0322,2.0322,2.0311,2.0312,2.0337,2.0334,2.0418,2.0429,2.0367,2.0368,2.0368,0,1.9941,1.9969,2.0,2.002,2.0036,2.0067,2.0088,2.01,2.0122,2.0156,2.0178,2.0215,2.0244,2.0303,2.0323,2.0358,2.0359,2.0386,2.0364,2.0359,2.0358,2.0355,2.0357,2.0389,2.039,2.0391,2.0391,0,2.0001,2.0006,2.0036,2.0067,2.0092,2.0118,2.0143,2.016,2.0176,2.02,2.0237,2.026,2.0305,2.0341,2.0377,2.0395,2.0396,2.0398,2.0406,2.0402,2.0393,2.0397,2.032,2.0396,2.0395,2.0395,2.0395,2.0394,2.0042,2.0066,2.0092,2.0125,2.0145,2.0168,2.0194,2.021,2.024,2.0277,2.0283,2.0322,2.035,2.0398,2.0417,2.0448,2.0442,2.0453,2.0456,2.0458,2.0459,2.039,2.0455,2.0455,2.0455,2.0455,2.0455,0,2.0101,2.0117,2.0147,2.0182,2.0207,2.0205,2.0233,2.0255,2.0289,2.0314,2.0343,2.0385,2.042,2.0443,2.0478,2.0499,2.05,2.0507,2.0505,2.0509,2.0464,2.0452,2.0506,2.0506,2.0506,2.0506,2.0506,2.0506,2.0135,2.0175,2.0184,2.0235,2.0252,2.0288,2.0305,2.0327,2.0347,2.0393,2.0421,2.0436,2.046,2.0498,2.053,2.0536,2.0548,2.0556,2.0561,2.0518,2.0513,2.0507,2.0497,2.0559,2.0559,2.0604,2.0605,2.0605]},{"header":{"parameterUnit":"m.s-1","parameterCategory":1,"la1":30.2991,"la2":30.254,"lo1":-89.0895,"lo2":-89.0444,"dy":0.0017,"dx":0.0017,"nx":28,"ny":28,"refTime":"2025-07-09T09:00:00:Z","depth":0,"parameterNumber":3,"parameterNumberName":"V-component_of_WINDS"},"data":[0,0,0,0,0,0,0,0,0,0,0,0,0,0,0,0,0,0,0,0,0,0,0,0,0,0,0,0,0,0,0,0,0,0,0,0,0,0,0,0,0,0,0,0,0,0,0,0,0,0,0,0,0,0,0,0,0,0,5.2343,5.2344,0,5.2447,5.2449,5.245,5.2444,5.2443,5.2441,5.244,5.2535,5.2539,5.2543,0,0,0,0,0,0,0,0,0,0,0,0,0,5.2128,5.2132,5.2343,5.2345,5.2346,5.2447,5.2449,5.245,5.2444,5.2443,5.2441,5.2439,5.2534,5.2539,5.2543,0,0,0,0,0,0,0,0,0,0,0,0,0,5.2226,5.2134,5.2343,5.2356,5.2358,5.2447,5.2449,5.245,5.2445,5.2443,5.244,5.2438,5.2533,5.2538,5.2544,5.2624,0,0,5.2562,5.2565,0,0,0,0,0,0,0,0,5.222,5.2233,5.2352,5.2355,5.2357,5.2431,5.2408,5.2508,5.2445,5.2411,5.244,5.2437,5.2502,5.251,5.2534,5.2629,5.2633,5.2563,5.2566,5.2569,5.257,0,0,0,0,0,0,0,5.2213,5.2229,5.2384,5.2354,5.2357,5.2352,5.2364,5.2427,5.2467,5.2414,5.2414,5.2427,5.2502,5.2528,5.2536,5.2634,5.2562,5.2568,5.2571,5.2573,5.2798,5.2801,0,0,0,0,0,0,5.2205,5.2223,5.2381,5.2387,5.2282,5.2358,5.2371,5.2409,5.2467,5.2473,5.2429,5.2426,5.2519,5.2529,5.2539,5.2636,5.2569,5.2574,5.2577,5.2796,5.2799,5.2802,0,0,0,0,0,0,5.2201,5.222,5.2377,5.2305,5.2325,5.2364,5.2407,5.2412,5.2438,5.2478,5.2484,5.2449,5.2518,5.2531,5.2604,5.264,5.2577,5.2582,5.2793,5.2797,5.28,5.2831,0,0,0,0,0,0,5.2195,5.2218,5.2252,5.2306,5.2329,5.2442,5.241,5.2416,5.245,5.2448,5.2498,5.2504,5.2517,5.2595,5.261,5.2647,5.2587,5.279,5.2795,5.2799,5.2827,5.2836,5.2843,0,0,0,0,0,5.2187,5.2254,5.2253,5.2272,5.2372,5.2445,5.2457,5.2474,5.2453,5.2485,5.251,5.2502,5.2634,5.2602,5.2619,5.2658,5.2788,5.2793,5.2799,5.2824,5.2834,5.2843,0,0,0,0,0,0,5.2198,5.2261,5.2261,5.2349,5.2392,5.2444,5.2485,5.2485,5.2532,5.2527,5.2543,5.2555,5.2627,5.265,5.2614,5.2738,5.2707,5.2716,5.2721,5.2731,5.2738,5.2731,5.2591,0,0,0,0,0,5.2211,5.2269,5.2319,5.2391,5.2413,5.2445,5.2477,5.2487,5.2531,5.2548,5.2579,5.2618,5.2668,5.2701,5.2749,5.2831,5.284,5.2866,5.2873,5.288,5.2887,5.293,5.2941,5.282,5.282,5.282,0,0,5.2238,5.2279,5.2314,5.2394,5.2429,5.2484,5.2461,5.252,5.256,5.2556,5.2627,5.2651,5.2696,5.2773,5.2809,5.2794,5.2923,5.2887,5.2891,5.2895,5.2937,5.2948,5.2958,5.2824,5.2823,5.2822,0,0,5.2314,5.2353,5.2417,5.2453,5.2507,5.2528,5.2544,5.2596,5.2613,5.2686,5.2683,5.2729,5.2816,5.2848,5.2876,5.2965,5.2959,5.298,5.302,5.3062,5.3072,5.308,5.3111,5.3122,5.2987,5.2987,5.2987,0,5.2339,5.2427,5.2448,5.251,5.2544,5.2547,5.2609,5.2642,5.2707,5.2729,5.2713,5.2822,5.2852,5.2937,5.2959,5.2982,5.2997,5.2974,5.3069,5.3078,5.3086,5.3115,5.3127,5.2989,5.2989,5.2989,5.2989,0,5.2454,5.2514,5.2559,5.2627,5.2666,5.2727,5.2755,5.2791,5.2798,5.2819,5.2892,5.2929,5.2985,5.3006,5.3011,5.309,5.308,5.3067,5.3036,5.31,5.3127,5.3139,5.2993,5.2992,5.2991,5.2991,0,0,5.2539,5.262,5.2636,5.2666,5.2727,5.2772,5.2832,5.289,5.292,5.2965,5.3014,5.3088,5.3076,5.3107,5.3116,5.3153,5.322,5.3135,5.3136,5.3149,5.3308,5.3317,5.333,5.3217,5.322,5.3221,5.3304,0,5.2621,5.2733,5.2754,5.285,5.2904,5.2908,5.296,5.3001,5.3023,5.3069,5.3091,5.3143,5.3125,5.3144,5.3181,5.3205,5.3252,5.3199,5.326,5.3262,5.3248,5.3345,5.3355,5.3431,5.3315,5.3317,5.3319,0,5.2732,5.2784,5.2886,5.2939,5.2963,5.301,5.3065,5.3111,5.3156,5.3169,5.3205,5.321,5.3269,5.3237,5.3317,5.328,5.3306,5.3321,5.3325,5.333,5.3293,5.3351,5.3456,5.3467,5.3336,5.3335,5.3333,0,5.2782,5.2877,5.2951,5.2977,5.3041,5.3074,5.3101,5.3145,5.3178,5.3225,5.3246,5.3298,5.3326,5.3364,5.3381,5.3356,5.346,5.3429,5.3469,5.3469,5.349,5.3488,5.3599,5.3509,5.3509,5.3508,5.3508,0,5.2871,5.2933,5.2975,5.302,5.3088,5.3111,5.3177,5.3203,5.3242,5.3289,5.3294,5.3337,5.3358,5.3404,5.3417,5.3481,5.3493,5.3503,5.3506,5.3503,5.3501,5.3519,5.3513,5.3512,5.3511,5.351,5.351,0,5.2938,5.2969,5.3049,5.3105,5.312,5.3168,5.3213,5.3255,5.3278,5.3338,5.3353,5.3386,5.3441,5.3463,5.3527,5.3537,5.3609,5.3608,5.3595,5.3596,5.3635,5.363,5.376,5.3777,5.3676,5.3677,5.3678,0,5.2992,5.3041,5.3102,5.3137,5.3166,5.3221,5.3256,5.3279,5.3315,5.3371,5.3405,5.3461,5.3506,5.3592,5.362,5.3669,5.3668,5.371,5.3675,5.367,5.3667,5.3664,5.3668,5.3716,5.3717,5.3718,5.3719,0,5.3084,5.3098,5.3151,5.3209,5.3253,5.3299,5.3343,5.337,5.3399,5.3439,5.3497,5.3532,5.3601,5.3654,5.3706,5.373,5.3728,5.373,5.3742,5.3738,5.3728,5.3733,5.3612,5.3726,5.3725,5.3725,5.3725,5.3724,5.3145,5.3189,5.324,5.3298,5.3335,5.3377,5.342,5.3449,5.3499,5.3559,5.3569,5.363,5.3672,5.3742,5.3768,5.3814,5.3802,5.382,5.3824,5.3827,5.383,5.3722,5.3823,5.3823,5.3823,5.3822,5.3822,0,5.3237,5.327,5.3324,5.3389,5.3434,5.3434,5.3483,5.352,5.3575,5.3617,5.3663,5.3728,5.378,5.3813,5.3865,5.3895,5.3896,5.3908,5.3905,5.391,5.3837,5.3822,5.3907,5.3907,5.3907,5.3907,5.3907,5.3907,5.3289,5.3363,5.3382,5.3472,5.3504,5.3568,5.3596,5.3633,5.3667,5.3741,5.3786,5.3809,5.3846,5.3901,5.3948,5.3956,5.3974,5.3987,5.3994,5.3924,5.3916,5.3907,5.3893,5.3991,5.3991,5.4063,5.4064,5.4064]}]]